Skip Page Navigation
NASA JPL Caltech
NASA Logo - Jet Propulsion Laboratory + View the NASA Portal
+ Center for Near-Earth Object Studies
JPL Home Earth Solar System Stars & Galaxies Technology
JPL Solar System Dynamics
BODIES ORBITS EPHEMERIDES TOOLS PHYSICAL DATA DISCOVERY FAQ SITE MAP
IMPORTANT: The SSD Announcement email list is now available. Major changes are coming in the near future, including possible hostname and/or URL changes. To be notified of such changes, subscribe to this email list.

Please visit this page for more details.


JPL Small-Body Database Browser
Search: [ help ]  
295845 (2008 VO39)
Classification: Main-belt Asteroid          SPK-ID: 2295845
Ephemeris | Orbit Diagram | Orbital Elements | Mission Design | Physical Parameters | Discovery Circumstances | Close-Approach Data ]

[ show orbit diagram ]
Orbital Elements at Epoch 2458600.5 (2019-Apr-27.0) TDB
Reference: JPL 17 (heliocentric ecliptic J2000)
 Element Value Uncertainty (1-sigma)   Units 
e .1680607371156228 6.0259e-08  
a 2.418845666657029 2.3588e-08 au
q 2.012332680949719 1.3716e-07 au
i 4.97567858278501 6.2329e-06 deg
node 319.4501008999509 6.0338e-05 deg
peri 333.3479545427011 6.3998e-05 deg
M 34.37046953971578 2.5202e-05 deg
tp 2458469.312145297064
(2018-Dec-16.81214530)
9.5001e-05 TDB
period 1374.075720393763
3.76
2.0099e-05
5.503e-08
d
yr
n .2619942952611348 3.8324e-09 deg/d
Q 2.82535865236434 2.7552e-08 au
  Orbit Determination Parameters
   # obs. used (total)      237  
   data-arc span      6496 days (17.79 yr)  
   first obs. used      2002-01-14  
   last obs. used      2019-10-28  
   planetary ephem.      DE431  
   SB-pert. ephem.      SB431-N16  
   condition code      0  
   norm. resid. RMS      .62901  
   source      ORB  
   producer      Otto Matic  
   solution date      2019-Nov-08 07:03:30  

Additional Information
 Earth MOID = .997052 au 
 Jupiter MOID = 2.36877 au 
 T_jup = 3.490 
[ show covariance matrix ]

Ephemeris | Orbit Diagram | Orbital Elements | Mission Design | Physical Parameters | Discovery Circumstances | Close-Approach Data ]

Physical Parameter Table
Parameter Symbol Value Units Sigma Reference Notes
absolute magnitude H 17.1   n/a MPO440402  

295845 (2008 VO39)          Discovered 2006-Jan-07 by Mt. Lemmon Survey at Mount Lemmon
Reference: 20110912/Numbers.arcLast Updated: 2011-09-14

[ show close-approach data ]
Alternate Designations
 2008 VO39 = 2010 CK165 
Ephemeris | Orbit Diagram | Orbital Elements | Mission Design | Physical Parameters | Discovery Circumstances | Close-Approach Data ]
ABOUT SSD CREDITS/AWARDS PRIVACY/COPYRIGHT GLOSSARY LINKS
FirstGov
(server date/time)  
NASA Home Page
Site Manager:   Ryan S. Park
Webmaster  Alan B. Chamberlin